Tracking 30995 objects as of 5-Jul-2025
HD Live streaming from Space Station
objects crossing your sky now

BREEZE-M DEB

Track BREEZE-M DEB now!


NORAD ID: 41543
Int'l Code: 2015-075D
Perigee: 33,343.7 km
Apogee: 35,532.5 km
Inclination: 7.6 °
Period: 1,367.4 minutes
Semi major axis: 40809 km
RCS: Unknown
Launch date: December 13, 2015
Source: Commonwealth of Independent States (former USSR) (CIS)
Launch site: TYURATAM MISSILE AND SPACE COMPLEX (TTMTR)

Note: This is SATELLITE DEBRIS
Your satellite tracking list
COSMOS 2227
Track 1 satellite(s)




NASA's NSSDC Master Catalog

Two Line Element Set (TLE):
1 41543U 15075D   25184.65413710 -.00000198  00000-0  00000-0 0  9991
2 41543   7.6280  62.9293 0268182 164.4986 196.2604  1.05309387 36416
Source of the keplerian elements: AFSPC